Regional Weather Roundup
Issued by NWS

Home | Current Version | Previous Version | Text Only | Print | Product List | Glossary Off
Versions: 1 2 3 4 5 6 7 8 9 10 11 12 13 14 15 16 17 18 19 20 21 22 23 24 25 26 27 28 29 30 31 32 33 34 35 36 37 38 39 40 41 42 43 44 45 46 47 48 49 50

000
ASUS43 KFSD 201302
RWRSD

WEATHER ROUNDUP FOR SOUTH DAKOTA
NATIONAL WEATHER SERVICE SIOUX FALLS SD
800 AM CDT SUN APR 20 2014

NOTE: "FAIR" INDICATES FEW OR NO CLOUDS BELOW 12,000 FEET WITH NO
SIGNIFICANT WEATHER AND/OR OBSTRUCTIONS TO VISIBILITY.


SDZ001>005-009-010-012>017-201400-
NORTHWEST AND NORTH CENTRAL SOUTH DAKOTA

CITY           SKY/WX    TMP DP  RH WIND       PRES   REMARKS
FAITH            N/A     43  28  55 S16       29.93S
MOBRIDGE       SUNNY     40  35  83 E6        29.95R
$$

SDZ012>016-024>037-041>051-057-063-072>074-201400-
SOUTHWEST AND SOUTH CENTRAL SOUTH DAKOTA

CITY           SKY/WX    TMP DP  RH WIND       PRES   REMARKS
RAPID CTY ARPT CLEAR     42  30  62 SE3       29.91S
PIERRE         MOSUNNY   41  31  67 NE6       29.96S
CUSTER         CLEAR     46  34  62 CALM      29.98R
ELLSWORTH AFB  CLEAR     44  31  60 NW3       29.91S
PHILIP         SUNNY     49  29  46 SE6       29.94R
PINE RIDGE     CLEAR     50  41  71 SW10      29.94S
WINNER         FAIR      50  23  34 SE8       29.98F
$$

SDZ004>011-016>023-039-040-201400-
NORTHEAST SOUTH DAKOTA

CITY           SKY/WX    TMP DP  RH WIND       PRES   REMARKS
ABERDEEN       SUNNY     38  34  85 CALM      30.01S
WATERTOWN      MOSUNNY   42  37  82 N5        30.02F
SISSETON         N/A     39  37  92 CALM      30.03F
$$

SDZ017-020-022-023-036>040-048>070-201400-
SOUTHEAST SOUTH DAKOTA

CITY           SKY/WX    TMP DP  RH WIND       PRES   REMARKS
SIOUX FALLS    MOSUNNY   50  40  68 NE5       30.00R
HURON          SUNNY     46  32  58 SE5       29.99F
CHAMBERLAIN      N/A     41  33  73 N3        30.00R
MITCHELL       MOSUNNY   40  32  73 CALM      30.01S
YANKTON        SUNNY     48  39  71 NW6       29.99S
$$

ABBREVIATIONS USED IN REMARKS
   TC - TEMPERATURE IN CELSIUS
  WCI - WIND CHILL INDEX
   HX - HEAT INDEX
  VSB - VISIBILITY




USA.gov is the U.S. government's official web portal to all federal, state and local government web resources and services.